• In Schweiz
  • Länderverzeichnis
  • Für 7 Tage
  • Wassertemperatur
  • Satellitenkarten
  • Wetterkarte
  • Widgets
  • user-avatar
    Anmelden

    Stündliche Wetter Kolokolovo

    Heute, 17 Oktober, Mittwoch

    Zeit Temperatur Niederschläge Wind Luftdruck Luftfeuchtigkeit
    00:00 +10°C° 0 mm 2 m/S 762 mmHg 93%
    01:00 +9°C° 0 mm 2 m/S 762 mmHg 93%
    02:00 +10°C° 0 mm 1 m/S 762 mmHg 94%
    03:00 +10°C° 0 mm 1 m/S 762 mmHg 94%
    04:00 +9°C° 0 mm 2 m/S 762 mmHg 94%
    05:00 +9°C° 0 mm 2 m/S 762 mmHg 94%
    06:00 +9°C° 0 mm 2 m/S 762 mmHg 94%
    07:00 +9°C° 0 mm 2 m/S 762 mmHg 94%
    08:00 +9°C° 0 mm 2 m/S 763 mmHg 92%
    09:00 +10°C° 0 mm 2 m/S 763 mmHg 87%
    10:00 +13°C° 0 mm 2 m/S 763 mmHg 82%
    11:00 +14°C° 0 mm 2 m/S 763 mmHg 77%
    12:00 +14°C° 0 mm 2 m/S 763 mmHg 75%
    13:00 +15°C° 0 mm 2 m/S 762 mmHg 72%
    14:00 +16°C° 0 mm 2 m/S 762 mmHg 70%
    15:00 +15°C° 0 mm 2 m/S 762 mmHg 75%
    16:00 +14°C° 0 mm 2 m/S 762 mmHg 80%
    17:00 +13°C° 0 mm 2 m/S 762 mmHg 84%
    18:00 +12°C° 0 mm 2 m/S 762 mmHg 86%
    19:00 +12°C° 0 mm 2 m/S 762 mmHg 87%
    20:00 +10°C° 0 mm 3 m/S 762 mmHg 89%
    21:00 +10°C° 0 mm 3 m/S 762 mmHg 89%
    22:00 +10°C° 0 mm 3 m/S 761 mmHg 90%
    23:00 +9°C° 0 mm 3 m/S 761 mmHg 90%

    Morgen, 18 Oktober, Donnerstag

    Zeit Temperatur Niederschläge Wind Luftdruck Luftfeuchtigkeit
    00:00 +9°C° 0 mm 3 m/S 761 mmHg 91%
    01:00 +9°C° 0 mm 3 m/S 761 mmHg 91%
    02:00 +9°C° 0 mm 3 m/S 761 mmHg 92%
    03:00 +8°C° 0 mm 3 m/S 761 mmHg 93%
    04:00 +8°C° 0 mm 3 m/S 760 mmHg 93%
    05:00 +8°C° 0 mm 3 m/S 760 mmHg 93%
    06:00 +8°C° 0 mm 3 m/S 760 mmHg 92%
    07:00 +9°C° 0 mm 3 m/S 760 mmHg 92%
    08:00 +9°C° 0 mm 3 m/S 760 mmHg 91%
    09:00 +10°C° 0 mm 3 m/S 759 mmHg 85%
    10:00 +11°C° 0 mm 4 m/S 759 mmHg 79%
    11:00 +13°C° 0 mm 4 m/S 759 mmHg 74%
    12:00 +13°C° 0 mm 4 m/S 758 mmHg 71%
    13:00 +14°C° 0 mm 4 m/S 758 mmHg 69%
    14:00 +15°C° 0 mm 4 m/S 758 mmHg 67%
    15:00 +14°C° 0 mm 4 m/S 757 mmHg 69%
    16:00 +14°C° 0 mm 4 m/S 757 mmHg 72%
    17:00 +13°C° 0 mm 4 m/S 757 mmHg 75%
    18:00 +13°C° 0 mm 4 m/S 757 mmHg 77%
    19:00 +12°C° 0 mm 4 m/S 757 mmHg 79%
    20:00 +12°C° 0 mm 4 m/S 757 mmHg 81%
    21:00 +11°C° 0.1 mm 4 m/S 757 mmHg 84%
    22:00 +11°C° 0.1 mm 4 m/S 757 mmHg 87%
    23:00 +10°C° 0.1 mm 4 m/S 757 mmHg 90%

    übermorgen, 19 Oktober, Freitag

    Zeit Temperatur Niederschläge Wind Luftdruck Luftfeuchtigkeit
    00:00 +10°C° 0 mm 4 m/S 758 mmHg 87%
    01:00 +10°C° 0 mm 4 m/S 758 mmHg 84%
    02:00 +10°C° 0 mm 4 m/S 759 mmHg 81%
    03:00 +8°C° 0 mm 4 m/S 759 mmHg 82%
    04:00 +8°C° 0 mm 3 m/S 759 mmHg 84%
    05:00 +7°C° 0 mm 3 m/S 759 mmHg 85%
    06:00 +7°C° 0 mm 3 m/S 759 mmHg 84%
    07:00 +7°C° 0 mm 3 m/S 760 mmHg 84%
    08:00 +7°C° 0 mm 3 m/S 760 mmHg 83%
    09:00 +7°C° 0 mm 4 m/S 760 mmHg 79%
    10:00 +8°C° 0 mm 4 m/S 760 mmHg 74%
    11:00 +9°C° 0 mm 5 m/S 760 mmHg 69%
    12:00 +10°C° 0 mm 4 m/S 760 mmHg 68%
    13:00 +10°C° 0 mm 4 m/S 760 mmHg 67%
    14:00 +11°C° 0 mm 4 m/S 760 mmHg 66%
    15:00 +10°C° 0 mm 4 m/S 761 mmHg 70%
    16:00 +8°C° 0 mm 4 m/S 761 mmHg 74%
    17:00 +7°C° 0 mm 4 m/S 761 mmHg 77%
    18:00 +7°C° 0 mm 4 m/S 761 mmHg 79%
    19:00 +7°C° 0 mm 4 m/S 761 mmHg 81%
    20:00 +6°C° 0 mm 4 m/S 762 mmHg 83%
    21:00 +6°C° 0 mm 4 m/S 762 mmHg 85%
    22:00 +7°C° 0 mm 3 m/S 762 mmHg 87%
    23:00 +5°C° 0 mm 3 m/S 762 mmHg 88%

    20 Oktober, Samstag

    Zeit Temperatur Niederschläge Wind Luftdruck Luftfeuchtigkeit
    00:00 +5°C° 0 mm 3 m/S 762 mmHg 89%
    01:00 +5°C° 0 mm 3 m/S 762 mmHg 90%
    02:00 +5°C° 0 mm 3 m/S 762 mmHg 91%
    03:00 +5°C° 0 mm 3 m/S 762 mmHg 91%
    04:00 +4°C° 0 mm 3 m/S 762 mmHg 90%
    05:00 +4°C° 0 mm 3 m/S 762 mmHg 90%
    06:00 +4°C° 0 mm 3 m/S 762 mmHg 88%
    07:00 +5°C° 0 mm 3 m/S 763 mmHg 87%
    08:00 +5°C° 0 mm 3 m/S 763 mmHg 85%
    09:00 +7°C° 0 mm 3 m/S 763 mmHg 80%
    10:00 +8°C° 0 mm 3 m/S 763 mmHg 75%
    11:00 +9°C° 0 mm 3 m/S 763 mmHg 70%
    12:00 +9°C° 0 mm 3 m/S 762 mmHg 69%
    13:00 +9°C° 0 mm 3 m/S 762 mmHg 68%
    14:00 +9°C° 0 mm 3 m/S 762 mmHg 68%
    15:00 +9°C° 0 mm 3 m/S 762 mmHg 71%
    16:00 +8°C° 0 mm 3 m/S 762 mmHg 74%
    17:00 +8°C° 0 mm 2 m/S 762 mmHg 78%
    18:00 +8°C° 0 mm 2 m/S 762 mmHg 80%
    19:00 +8°C° 0 mm 2 m/S 762 mmHg 82%
    20:00 +7°C° 0 mm 2 m/S 762 mmHg 84%
    21:00 +7°C° 0.1 mm 2 m/S 762 mmHg 86%
    22:00 +7°C° 0.1 mm 2 m/S 762 mmHg 87%
    23:00 +7°C° 0.1 mm 2 m/S 762 mmHg 89%

    21 Oktober, Sonntag

    Zeit Temperatur Niederschläge Wind Luftdruck Luftfeuchtigkeit
    00:00 +7°C° 0 mm 2 m/S 762 mmHg 90%
    01:00 +6°C° 0 mm 2 m/S 762 mmHg 92%
    02:00 +7°C° 0 mm 1 m/S 763 mmHg 93%
    03:00 +7°C° 0 mm 1 m/S 763 mmHg 94%
    04:00 +6°C° 0 mm 1 m/S 763 mmHg 94%
    05:00 +6°C° 0 mm 1 m/S 763 mmHg 95%
    06:00 +5°C° 0 mm 2 m/S 763 mmHg 95%
    07:00 +5°C° 0 mm 2 m/S 764 mmHg 95%
    08:00 +5°C° 0 mm 2 m/S 764 mmHg 95%
    09:00 +7°C° 0 mm 2 m/S 764 mmHg 90%
    10:00 +8°C° 0 mm 2 m/S 764 mmHg 85%
    11:00 +9°C° 0 mm 2 m/S 765 mmHg 80%
    12:00 +9°C° 0 mm 2 m/S 764 mmHg 77%
    13:00 +10°C° 0 mm 2 m/S 764 mmHg 75%
    14:00 +10°C° 0 mm 3 m/S 764 mmHg 72%
    15:00 +9°C° 0 mm 3 m/S 764 mmHg 76%
    16:00 +8°C° 0 mm 3 m/S 764 mmHg 80%
    17:00 +7°C° 0 mm 3 m/S 763 mmHg 84%
    18:00 +6°C° 0 mm 4 m/S 763 mmHg 84%
    19:00 +6°C° 0 mm 4 m/S 763 mmHg 84%
    20:00 +6°C° 0 mm 5 m/S 762 mmHg 84%
    21:00 +6°C° 0 mm 5 m/S 762 mmHg 83%
    22:00 +6°C° 0 mm 5 m/S 761 mmHg 81%
    23:00 +5°C° 0 mm 6 m/S 761 mmHg 80%

    22 Oktober, Montag

    Zeit Temperatur Niederschläge Wind Luftdruck Luftfeuchtigkeit
    00:00 +5°C° 0 mm 6 m/S 760 mmHg 80%
    01:00 +5°C° 0 mm 6 m/S 760 mmHg 79%
    02:00 +5°C° 0 mm 7 m/S 759 mmHg 79%
    03:00 +6°C° 0 mm 7 m/S 758 mmHg 80%
    04:00 +6°C° 0 mm 7 m/S 758 mmHg 80%
    05:00 +6°C° 0 mm 8 m/S 757 mmHg 81%
    06:00 +7°C° 0.1 mm 8 m/S 756 mmHg 82%
    07:00 +7°C° 0.1 mm 8 m/S 755 mmHg 83%
    08:00 +8°C° 0.1 mm 9 m/S 754 mmHg 83%
    09:00 +9°C° 0.3 mm 8 m/S 754 mmHg 83%
    10:00 +10°C° 0.3 mm 8 m/S 754 mmHg 83%
    11:00 +10°C° 0.3 mm 8 m/S 753 mmHg 83%
    12:00 +11°C° 0.1 mm 8 m/S 753 mmHg 79%
    13:00 +11°C° 0.1 mm 7 m/S 753 mmHg 76%
    14:00 +11°C° 0.1 mm 7 m/S 753 mmHg 72%
    15:00 +10°C° 0.1 mm 7 m/S 754 mmHg 71%
    16:00 +9°C° 0.1 mm 7 m/S 754 mmHg 71%
    17:00 +7°C° 0.1 mm 8 m/S 754 mmHg 70%
    18:00 +6°C° 0 mm 7 m/S 755 mmHg 69%
    19:00 +5°C° 0 mm 7 m/S 755 mmHg 69%
    20:00 +5°C° 0 mm 6 m/S 756 mmHg 68%
    21:00 +4°C° 0 mm 6 m/S 756 mmHg 69%
    22:00 +5°C° 0 mm 5 m/S 756 mmHg 70%
    23:00 +5°C° 0 mm 5 m/S 756 mmHg 70%
    Mehr zeigen